Simultaneous Nadir Overpasses (SNOs) Predictions

Prediction of SNOs between GOES-17 and TERRA Satellite Orbit:

Table of predicted SNOs for the next 14.0 days since TLE Epoch: 3/18/2023
Index Date Time (GOES-17) GOES-17 Lat,Lon TERRA Lat,Lon Distance(km) Time Diff (sec)
1 03/18/2023 16:52:30 -0.01,-104.76 -0.90,-100.62 471.48 80
2 03/19/2023 05:12:54 0.01,-104.72 -0.17,-105.57 96.75 80
3 03/21/2023 04:54:10 -0.00,-104.71 0.63,-101.68 343.17 80
4 03/21/2023 17:14:26 0.00,-104.74 0.40,-106.61 212.36 80
5 03/23/2023 17:01:02 0.01,-104.73 -0.43,-102.73 228.02 80
6 03/24/2023 05:21:26 -0.01,-104.69 -0.62,-107.69 339.75 80
7 03/26/2023 05:02:41 -0.01,-104.68 0.18,-103.80 100.69 80
8 03/26/2023 17:22:57 -0.01,-104.72 0.83,-108.73 455.50 80
9 03/28/2023 17:06:52 -0.02,-104.71 0.01,-104.84 15.13 80
10 03/30/2023 16:53:26 -0.02,-104.70 -0.79,-100.95 425.52 80
11 03/31/2023 05:13:49 0.02,-104.66 -0.22,-105.91 141.85 80
